Temperature
22 21 20 20 20 21 21 20 20 20 19 19 18 18 18 18 18 17 17 17 17 17 17 17 17 17 17 17 17 17 17 17 17 17 17 17 17 17 17 16 17 16 16
22 21 20 20 20 21 21 20 20 20 19 19 19 18 18 18 18 17 17 17 17 17 17 17 17 17 17 17 17 17 17 17 17 17 17 17 17 17 17 17 17 17 16
23 21 20 20 20 20 21 20 20 19 19 19 19 18 18 18 17 17 17 17 17 17 17 17 17 17 17 17 17 17 17 17 17 17 17 18 18 18 18 17 17 17 17
23 22 20 20 20 20 20 20 20 19 19 19 18 18 18 18 18 18 17 17 17 17 17 17 17 17 17 17 17 17 17 17 17 17 17 17 18 18 18 18 17 17 17
23 22 21 20 20 20 20 20 19 19 19 19 18 18 18 18 18 17 17 17 17 17 17 17 17 17 17 17 17 17 17 17 17 17 17 17 17 17 18 18 18 17 17
23 22 21 20 20 20 20 19 19 19 19 19 18 18 18 18 17 17 17 17 17 17 17 17 17 17 17 17 17 17 17 17 17 17 17 17 17 18 18 18 18 17 17
23 22 21 20 20 20 19 19 19 19 19 19 19 18 18 18 18 17 17 17 17 17 17 17 17 17 17 17 17 17 17 17 17 17 17 17 17 17 17 18 18 17 17
23 22 21 21 20 20 19 19 19 19 19 19 19 18 18 18 17 17 17 17 17 17 17 17 17 17 17 17 17 17 17 17 17 17 17 17 17 17 17 17 17 17 17
23 22 21 20 20 20 19 19 19 19 18 18 18 18 18 18 17 17 17 17 17 17 17 17 17 17 17 17 16 16 16 16 16 16 16 16 16 17 17 17 17 17 17
23 22 21 20 20 19 19 19 18 18 18 18 18 18 18 18 18 17 17 17 17 17 17 17 17 17 16 16 16 16 16 16 16 16 16 16 16 16 16 17 16 16 16
23 22 21 20 20 19 19 18 18 18 18 18 18 18 18 18 18 17 17 17 17 17 17 17 17 16 16 16 16 16 16 16 16 16 16 16 16 16 16 16 16 16 16
23 21 20 20 19 19 19 18 18 18 18 18 18 17 17 17 17 17 17 17 17 17 17 17 16 16 16 16 16 16 16 15 15 15 15 15 15 15 16 16 16 16 15
22 21 20 20 19 19 19 18 18 18 18 18 17 17 17 17 17 17 17 17 17 17 17 16 16 16 16 16 16 16 15 15 15 15 15 15 15 15 15 15 15 15 15
21 21 20 19 19 19 18 18 18 18 17 17 17 17 17 17 17 17 17 17 17 17 16 16 16 16 16 15 15 15 15 15 15 15 15 15 15 15 15 15 15 14 14
21 20 20 19 18 18 18 18 18 17 17 17 17 17 17 17 17 17 17 17 16 16 16 16 16 16 15 15 15 15 15 15 15 14 14 14 14 14 14 14 14 14 14
21 20 19 19 18 18 18 18 17 17 17 17 17 17 17 17 17 17 16 16 16 16 16 15 15 15 15 15 15 15 15 14 14 14 14 14 14 14 14 14 13 13 13
21 20 19 19 18 18 18 17 17 17 17 17 17 17 16 16 16 16 16 16 16 15 15 15 15 15 15 15 15 14 14 14 14 14 14 13 13 13 13 13 13 13 12
21 20 19 19 18 18 18 17 17 17 17 17 17 16 16 16 16 16 15 15 15 15 15 15 15 14 14 14 14 14 14 14 13 13 13 13 13 13 12 12 12 12 12
21 20 19 19 18 18 17 17 17 16 16 16 16 16 16 16 16 15 15 15 15 15 15 14 14 14 14 14 14 14 13 13 13 13 12 12 12 12 12 12 11 11 11
20 19 19 18 18 18 17 17 17 16 16 16 16 16 16 15 15 15 15 15 15 14 14 14 14 14 13 13 13 13 13 13 12 12 12 12 12 12 11 11 11 11 10
19 19 18 18 17 17 17 17 16 16 16 16 16 16 15 15 15 15 15 14 14 14 14 13 13 13 13 13 13 13 12 12 12 12 11 11 11 11 11 10 10 10 9
18 18 18 17 17 17 17 16 16 16 16 15 15 15 15 15 14 14 14 14 13 13 13 13 12 12 12 12 12 12 12 12 11 11 11 10 10 10 10 10 9 9 9
17 17 17 17 17 17 16 16 16 16 15 15 15 15 15 14 14 13 13 13 13 12 12 12 12 12 12 12 11 11 11 11 11 10 10 10 10 9 9 9 9 8 8
17 17 17 17 16 16 16 16 16 15 15 15 15 14 14 14 13 13 13 12 12 12 12 12 11 11 11 11 11 11 11 10 10 10 9 9 9 9 8 8 8 7 7
16 16 16 16 16 16 16 15 15 15 15 14 14 14 13 13 13 12 12 12 12 12 12 11 11 11 11 11 11 10 10 10 9 9 9 8 8 8 7 7 7 7 7
15 15 15 15 15 15 15 15 15 14 14 13 13 13 12 12 12 12 11 11 11 11 11 11 11 11 10 10 10 10 10 9 9 9 9 8 8 8 8 7 7 6 6
Wind_Speed
11 12 13 14 14 15 15 15 14 13 11 10 10 9 8 7 7 8 9 10 10 10 8 7 7 7 6 6 7 6 7 6 5 4 4 4 5 5 5 5 5 6 7
11 12 13 14 15 15 15 15 15 14 13 10 9 7 7 7 7 7 8 10 11 10 10 9 7 8 6 7 7 7 6 6 6 5 4 4 5 6 6 5 6 6 6
11 12 13 14 14 15 15 14 14 13 13 11 8 7 6 6 7 8 8 10 12 11 10 10 9 7 8 7 8 8 8 7 6 6 5 4 3 3 5 6 5 5 5
10 11 12 13 13 14 14 13 13 13 13 12 11 11 9 9 9 7 7 8 10 11 11 10 10 8 8 7 9 9 8 8 7 6 6 6 4 3 3 5 5 5 5
9 10 11 11 11 12 12 12 13 13 13 12 12 12 11 9 7 6 7 7 8 10 11 10 10 9 9 9 9 8 9 8 8 7 6 6 6 7 6 4 4 5 5
8 9 9 10 10 10 11 11 12 12 12 12 12 12 11 10 8 8 7 7 7 7 10 10 10 10 9 9 9 9 10 9 8 7 7 6 6 6 6 6 6 5 4
8 9 10 10 10 11 11 11 12 11 11 12 12 11 11 10 10 9 9 8 7 7 9 9 9 9 9 9 9 9 9 10 9 9 8 7 7 6 6 6 5 5 4
8 8 9 9 10 11 11 11 11 10 10 10 10 9 10 9 8 9 8 8 8 8 9 9 10 10 10 9 8 8 9 8 9 10 9 7 7 7 6 6 6 6 5
9 8 8 8 8 9 10 10 10 9 9 9 9 9 9 8 8 8 8 7 7 7 8 8 9 9 8 8 8 7 8 7 8 9 9 8 7 7 7 6 7 7 7
9 9 8 8 8 8 8 8 8 8 8 8 8 7 7 8 8 7 8 7 7 7 7 8 8 8 8 8 8 7 7 7 7 6 7 7 7 6 6 6 6 6 6
10 9 9 8 8 8 8 8 8 7 7 7 7 6 6 6 6 6 6 6 6 6 7 7 7 8 8 8 7 7 6 6 6 6 7 7 6 5 6 5 5 5 5
10 10 10 9 9 8 8 8 7 6 6 5 6 5 5 5 5 5 5 5 5 5 6 6 6 7 7 7 7 7 7 7 6 6 6 6 5 6 6 5 5 5 4
11 10 10 9 9 8 8 8 7 6 6 6 5 5 5 4 4 4 4 4 4 4 5 5 5 6 5 5 6 6 7 7 6 5 5 6 6 6 6 5 5 4 4
11 11 10 9 9 8 8 7 7 6 6 5 5 4 4 4 3 3 3 3 3 4 4 4 4 4 5 5 5 5 4 4 4 4 4 4 5 5 5 5 4 4 3
12 12 11 10 10 9 8 8 7 6 6 5 4 4 3 3 3 3 3 2 2 2 2 2 2 2 3 3 3 4 3 3 3 2 2 2 1 1 2 3 3 4 4
13 13 12 11 11 10 9 8 7 7 6 6 5 5 4 4 3 3 3 3 3 2 2 2 2 2 1 1 2 3 3 3 3 3 2 2 2 4 6 6 6 4 3
13 13 13 12 11 10 10 9 8 7 7 6 6 5 5 4 4 3 3 3 3 4 4 3 3 2 3 4 4 3 3 3 2 2 2 2 3 5 6 8 9 8 8
13 13 12 12 11 11 10 9 9 8 7 6 6 5 5 5 4 4 4 4 4 4 4 4 4 4 4 5 5 6 5 4 4 3 3 4 4 4 6 8 8 8 7
12 12 12 13 12 12 11 10 9 8 7 6 6 5 5 5 5 5 4 4 4 4 4 4 4 4 4 5 5 6 5 5 5 5 5 5 6 6 8 9 10 9 8
11 12 12 12 12 11 11 10 9 8 7 6 6 5 5 6 5 5 5 4 4 4 4 4 4 4 3 5 5 4 5 6 5 5 6 7 7 7 6 9 10 10 9
11 12 12 11 11 11 10 9 8 7 6 6 6 6 5 5 5 5 5 5 4 4 4 4 4 4 3 5 5 3 4 5 6 5 5 6 10 9 7 7 8 9 9
11 12 11 10 10 10 10 9 7 7 7 7 6 6 5 5 5 5 5 4 5 5 4 4 4 4 4 5 6 5 4 3 6 6 6 7 10 10 9 8 9 9 7
10 10 10 10 9 9 8 8 7 7 7 7 6 5 5 5 4 4 5 4 4 3 3 3 3 3 4 5 7 7 6 6 6 7 10 10 10 11 10 10 9 7 6
9 9 10 10 9 8 7 8 8 7 7 6 5 5 5 5 4 3 2 3 2 3 3 3 3 3 4 4 5 6 7 9 9 10 12 12 9 8 10 9 7 5 6
7 8 8 9 9 8 8 8 7 7 7 6 5 5 5 5 4 3 2 2 2 1 1 3 3 4 4 3 4 4 6 6 8 9 8 8 7 7 7 7 6 6 6
8 8 8 9 9 8 7 7 6 6 7 6 5 5 4 5 5 5 5 10 7 8 8 6 3 4 5 7 8 7 8 8 7 7 8 7 6 6 7 6 6 6 5
Wind_Direction
182 180 183 182 180 181 185 190 191 188 189 192 195 197 200 202 206 209 203 203 204 202 208 215 200 214 211 212 212 208 204 211 207 217 217 220 220 217 213 219 223 216 213
178 179 183 184 188 189 192 193 195 192 193 194 194 199 198 204 208 210 208 208 208 207 206 216 214 210 213 215 219 214 223 216 206 218 222 222 213 218 218 211 218 229 220
183 179 183 187 190 193 195 196 194 192 194 191 189 188 193 204 208 210 211 209 211 212 215 214 222 216 219 217 218 217 222 226 220 223 234 246 237 199 200 211 215 222 226
184 180 184 188 192 195 194 194 191 192 192 190 195 196 203 212 215 209 205 204 212 214 214 218 221 223 227 223 224 220 225 228 229 220 236 255 280 246 223 203 201 205 215
180 179 183 185 188 190 189 188 188 191 192 195 200 204 213 218 215 207 202 210 212 217 219 220 221 224 232 230 233 227 229 228 232 231 225 230 233 242 247 235 213 203 205
166 169 174 174 177 180 181 181 185 192 193 198 205 210 215 215 212 209 208 213 214 216 221 224 223 225 230 229 229 230 229 236 237 242 240 233 234 236 239 239 228 221 214
157 160 166 170 173 176 176 177 182 188 192 197 203 209 213 213 215 219 219 218 219 220 220 222 223 227 228 229 228 229 235 232 232 235 241 243 244 250 250 249 245 231 219
153 154 160 167 171 173 174 176 180 185 189 197 204 209 214 217 220 221 225 223 225 227 226 222 225 228 228 229 226 231 232 232 233 237 242 246 244 246 247 246 246 239 232
149 150 150 155 161 167 170 173 173 176 185 196 201 207 209 214 217 221 225 229 229 229 227 224 227 228 228 230 232 233 232 231 234 237 236 241 242 243 248 248 242 243 243
151 149 148 149 152 155 158 162 166 174 180 190 197 199 205 207 214 221 224 226 227 229 228 227 228 229 230 230 231 234 232 229 234 241 244 241 241 239 238 240 243 244 245
154 151 149 147 147 149 151 155 160 170 178 185 189 196 201 202 206 215 223 226 224 223 224 229 232 231 230 229 227 229 228 230 234 236 234 237 247 245 241 234 236 240 238
155 152 151 150 151 152 154 155 160 167 172 176 181 189 193 195 201 210 215 218 220 222 223 222 228 234 231 228 224 225 225 226 230 233 234 238 237 236 243 237 236 238 238
160 157 157 158 157 155 154 155 159 160 163 167 174 181 190 191 198 206 209 209 210 217 221 219 221 225 229 228 225 224 228 226 229 229 229 236 235 231 232 229 233 232 228
165 165 164 163 161 158 157 157 154 153 156 161 168 176 186 186 190 191 193 198 200 206 211 218 222 221 222 227 224 222 221 216 222 228 230 235 232 225 222 217 222 226 222
171 171 169 166 163 159 156 153 149 149 151 152 154 160 162 158 155 154 162 166 170 179 184 193 198 206 214 221 211 201 192 190 198 210 219 217 190 163 182 197 197 200 200
176 173 169 166 163 160 156 151 148 147 147 145 140 135 135 132 131 133 133 133 132 131 137 145 145 146 175 107 159 188 175 172 175 186 194 184 156 123 107 93 83 89 154
176 173 170 166 162 158 154 151 149 148 146 140 134 129 128 127 123 124 124 123 115 107 102 103 103 100 85 90 107 136 153 143 141 150 160 158 133 134 132 112 100 84 75
175 169 164 160 157 153 150 149 149 149 146 142 140 139 135 128 123 118 113 109 106 105 101 96 96 95 82 93 111 121 118 106 98 100 118 125 115 122 128 123 111 96 81
169 164 161 157 153 152 151 151 150 150 150 149 148 145 142 136 131 125 118 114 109 106 108 104 99 98 88 90 109 127 123 113 101 91 90 106 115 115 130 127 117 106 92
159 156 153 151 152 152 153 153 154 154 156 154 150 146 146 142 137 131 127 121 117 116 112 105 101 102 98 89 102 133 131 124 119 106 98 88 101 111 121 129 126 118 111
152 151 151 152 152 153 154 155 155 155 153 147 143 138 138 139 139 133 133 133 132 125 120 115 107 101 97 101 99 111 139 135 129 122 114 102 104 104 98 110 117 123 125
147 148 146 145 147 152 154 152 151 145 143 143 141 140 142 143 140 139 139 141 143 140 139 130 119 113 108 100 99 90 91 105 122 122 117 110 109 104 99 102 108 121 128
143 145 142 139 140 148 154 149 141 140 142 141 140 139 138 138 141 145 149 151 155 156 153 148 140 129 120 112 108 105 95 91 105 103 101 111 119 117 103 104 115 127 119
137 140 140 139 138 142 143 139 139 142 142 141 140 140 141 138 128 128 143 152 155 157 159 158 154 146 142 139 138 133 126 123 114 112 115 116 109 106 107 118 114 100 95
130 134 137 135 133 135 135 136 141 145 145 145 146 145 140 133 125 107 72 111 94 83 164 167 163 161 156 131 108 141 143 139 132 133 130 128 128 123 119 115 109 109 112
127 130 132 131 130 129 127 130 138 145 147 147 146 146 143 139 136 124 92 57 63 61 53 43 73 95 101 119 120 111 108 117 140 142 133 135 136 132 129 126 119 114 111
Height
1526 1528 1530 1532 1534 1537 1540 1543 1547 1549 1552 1554 1557 1560 1563 1565 1567 1569 1571 1572 1574 1576 1578 1580 1581 1583 1585 1586 1587 1588 1589 1590 1591 1593 1593 1594 1594 1594 1594 1595 1596 1596 1596
1524 1526 1527 1529 1532 1534 1537 1540 1543 1546 1549 1551 1554 1558 1560 1562 1565 1567 1568 1570 1572 1574 1576 1578 1580 1581 1583 1584 1585 1586 1588 1589 1590 1591 1591 1592 1593 1592 1592 1593 1593 1594 1595
1521 1523 1525 1527 1529 1532 1534 1537 1540 1543 1546 1549 1552 1555 1557 1559 1562 1563 1565 1567 1569 1572 1573 1575 1577 1579 1580 1582 1583 1584 1585 1587 1588 1589 1590 1590 1589 1590 1590 1590 1591 1591 1592
1519 1521 1522 1525 1527 1529 1532 1535 1537 1540 1543 1546 1549 1552 1554 1556 1559 1560 1562 1565 1567 1569 1571 1573 1574 1576 1578 1579 1580 1582 1583 1584 1586 1586 1587 1588 1588 1588 1588 1589 1589 1589 1589
1516 1518 1520 1522 1525 1528 1530 1532 1535 1537 1540 1543 1546 1549 1552 1554 1557 1559 1560 1562 1564 1566 1568 1569 1571 1572 1575 1576 1578 1579 1580 1582 1583 1584 1585 1585 1585 1586 1587 1587 1587 1587 1587
1515 1517 1519 1521 1523 1525 1528 1530 1533 1535 1538 1541 1544 1546 1549 1552 1554 1556 1558 1560 1562 1563 1565 1566 1568 1570 1571 1573 1574 1575 1577 1578 1579 1581 1582 1583 1583 1583 1584 1584 1584 1585 1585
1514 1515 1517 1519 1521 1523 1526 1528 1531 1533 1536 1539 1541 1544 1546 1549 1551 1553 1555 1557 1558 1560 1561 1563 1564 1566 1568 1569 1571 1572 1573 1574 1575 1576 1578 1579 1580 1581 1581 1581 1581 1582 1582
1513 1515 1516 1518 1520 1522 1524 1527 1529 1532 1535 1537 1539 1542 1544 1546 1548 1550 1552 1553 1555 1556 1558 1560 1561 1563 1564 1566 1567 1568 1569 1570 1571 1573 1574 1575 1576 1577 1578 1578 1579 1579 1580
1513 1515 1516 1518 1520 1522 1524 1526 1528 1530 1532 1535 1538 1540 1542 1543 1545 1547 1548 1550 1551 1553 1555 1556 1557 1559 1560 1561 1562 1563 1564 1566 1567 1568 1570 1571 1572 1573 1574 1575 1575 1577 1576
1513 1515 1517 1518 1520 1522 1523 1525 1528 1529 1531 1534 1536 1538 1539 1540 1542 1544 1545 1547 1548 1549 1551 1552 1553 1555 1556 1557 1558 1559 1560 1561 1562 1564 1565 1566 1567 1568 1569 1570 1571 1572 1573
1513 1515 1517 1518 1520 1522 1523 1525 1527 1529 1531 1533 1534 1536 1537 1538 1540 1541 1542 1543 1545 1546 1547 1548 1550 1551 1552 1553 1554 1555 1556 1557 1558 1559 1560 1561 1563 1564 1565 1566 1566 1568 1569
1512 1515 1517 1519 1520 1522 1524 1525 1527 1529 1530 1532 1533 1534 1536 1537 1538 1539 1540 1541 1541 1543 1544 1545 1546 1547 1548 1549 1550 1551 1552 1553 1554 1555 1556 1557 1558 1559 1560 1561 1562 1563 1564
1512 1514 1517 1519 1521 1522 1524 1526 1527 1528 1529 1531 1532 1533 1534 1535 1536 1537 1538 1538 1539 1540 1541 1542 1542 1543 1544 1545 1546 1547 1548 1548 1550 1550 1552 1552 1553 1554 1555 1556 1557 1559 1560
1510 1513 1515 1518 1520 1521 1523 1525 1527 1528 1529 1530 1531 1531 1532 1533 1534 1535 1536 1537 1537 1538 1538 1539 1540 1540 1541 1542 1542 1543 1543 1544 1545 1547 1548 1548 1549 1549 1550 1551 1553 1554 1555
1509 1511 1514 1516 1518 1520 1522 1524 1526 1527 1528 1529 1530 1530 1531 1532 1533 1534 1534 1535 1535 1536 1536 1537 1537 1538 1538 1538 1539 1540 1540 1541 1542 1543 1544 1544 1545 1546 1547 1548 1549 1550 1551
1506 1509 1512 1514 1517 1519 1521 1523 1525 1526 1527 1529 1529 1530 1530 1531 1532 1533 1533 1534 1534 1534 1535 1535 1535 1535 1536 1536 1537 1537 1538 1539 1539 1540 1540 1541 1542 1543 1544 1544 1546 1547 1548
1504 1507 1510 1512 1515 1518 1520 1522 1524 1526 1527 1528 1529 1529 1530 1531 1531 1532 1533 1533 1533 1533 1533 1534 1534 1534 1534 1534 1535 1535 1536 1536 1537 1537 1538 1538 1539 1540 1541 1542 1543 1544 1545
1502 1506 1509 1511 1514 1516 1519 1521 1523 1525 1526 1528 1529 1529 1530 1530 1531 1531 1532 1532 1532 1533 1533 1533 1533 1533 1533 1534 1534 1534 1535 1535 1535 1535 1536 1537 1538 1538 1539 1540 1541 1542 1543
1501 1504 1507 1510 1513 1516 1518 1520 1522 1524 1526 1527 1528 1529 1529 1530 1530 1531 1531 1531 1532 1532 1532 1532 1532 1533 1533 1533 1533 1534 1534 1534 1534 1534 1535 1536 1536 1537 1538 1539 1540 1541 1542
1500 1503 1506 1509 1512 1514 1517 1519 1521 1523 1524 1526 1527 1527 1528 1529 1530 1530 1530 1531 1531 1531 1532 1532 1532 1532 1532 1533 1533 1533 1533 1533 1534 1534 1535 1535 1535 1536 1537 1538 1539 1540 1542
1498 1502 1505 1508 1511 1513 1516 1518 1520 1521 1523 1524 1525 1526 1527 1528 1529 1529 1529 1530 1530 1531 1531 1531 1531 1531 1532 1532 1533 1533 1533 1534 1534 1534 1534 1535 1535 1536 1537 1538 1539 1540 1542
1497 1500 1504 1507 1509 1512 1515 1517 1519 1520 1521 1523 1524 1525 1526 1527 1528 1528 1528 1529 1529 1530 1530 1530 1530 1531 1531 1532 1532 1532 1533 1534 1534 1534 1535 1535 1536 1537 1538 1539 1540 1541 1543
1496 1499 1502 1505 1508 1511 1513 1515 1517 1518 1520 1521 1522 1524 1524 1525 1526 1527 1527 1528 1528 1529 1529 1530 1530 1530 1530 1531 1531 1532 1533 1533 1533 1534 1535 1535 1537 1538 1539 1540 1541 1543 1544
1496 1499 1501 1503 1506 1509 1511 1513 1515 1517 1518 1519 1521 1522 1523 1523 1524 1525 1526 1527 1527 1528 1528 1528 1529 1529 1529 1530 1531 1531 1532 1533 1533 1534 1535 1536 1537 1538 1539 1540 1542 1543 1545
1495 1498 1500 1502 1504 1507 1509 1511 1513 1515 1516 1518 1519 1520 1521 1521 1522 1523 1524 1525 1526 1526 1527 1527 1528 1528 1528 1529 1529 1530 1531 1532 1533 1534 1536 1537 1538 1539 1540 1541 1542 1544 1546
1495 1497 1500 1501 1503 1505 1507 1509 1511 1513 1514 1516 1517 1518 1519 1519 1520 1521 1522 1522 1523 1524 1525 1525 1526 1526 1527 1527 1528 1529 1530 1531 1532 1534 1535 1537 1538 1539 1540 1542 1543 1545 1546